Location: Paddlesworth
(51.1000°N, 1.1333°E)
Time: 12:03:56
(UTC+00:00)

Cosmos 2218 Rocket - Pass Details

Date: 11 May 2021
Orbit: 957 x 1005 km, 82.9° (Epoch: 19 June)

Event Time Altitude Azimuth Distance (km) Brightness Sun altitude
Rises 22:06:11 0° 352° (N) 3,685 8.4 -17.0°
Reaches altitude 10° 22:08:47 10° 358° (N) 2,740 7.4 -17.2°
Maximum altitude 22:14:54 51° 73° (ENE) 1,229 4.4 -17.6°
Enters shadow 22:18:17 26° 137° (SE) 1,835 4.9 -17.8°
